Zurück zum Katalog

SAMSON MASS SIMULATOR

AktivWissenschaftSSO
NORAD 43891·PAYLOAD·🇷🇺 Russia
Dieser Satellitenname wurde noch nicht durch offizielle Quellen bestätigt.

Gestartet Dec 27, 2018 von Vostochny Cosmodrome

Loading…

Nächste Überflüge (nächste 24 Stunden)

TLE

AktuellSource: Space-Track

Epoche: Sep 14, 2026, 14:36 UTC

1 43891U 18111R   26257.60859025  .00003140  00000-0  85429-4 0  9994
2 43891  97.0045  89.2379 0017796 309.1226  50.8437 15.38084799430179

Verfolge SAMSON MASS SIMULATOR in Echtzeit mit AllMySat

Download on the App Store